QPF
0.00 0.00 0.00 0.00 0.00 0.00 0.00 0.00 0.00 0.00 0.00 0.00 0.00 0.00 0.00 0.00 0.00 0.00 0.00 0.00 0.00 0.00 0.00 0.00 0.00 0.00 0.00 0.00 0.00 0.00 0.00 0.00 0.00 0.00 0.00 0.00 0.00 0.00 0.00 0.00 0.00 0.00 0.00 0.00 0.00 0.00 0.00
0.00 0.00 0.00 0.00 0.00 0.00 0.00 0.00 0.00 0.00 0.00 0.00 0.00 0.00 0.00 0.00 0.00 0.00 0.00 0.00 0.00 0.00 0.00 0.00 0.00 0.00 0.00 0.00 0.00 0.00 0.00 0.00 0.00 0.00 0.00 0.00 0.00 0.00 0.00 0.00 0.00 0.00 0.00 0.00 0.00 0.00 0.00
0.00 0.00 0.00 0.00 0.00 0.00 0.00 0.00 0.00 0.00 0.00 0.00 0.00 0.00 0.00 0.00 0.00 0.00 0.00 0.00 0.00 0.00 0.00 0.00 0.00 0.00 0.00 0.00 0.00 0.00 0.00 0.00 0.00 0.00 0.00 0.00 0.00 0.00 0.00 0.00 0.00 0.00 0.00 0.00 0.00 0.00 0.00
0.00 0.00 0.00 0.00 0.00 0.00 0.00 0.00 0.00 0.00 0.00 0.00 0.00 0.00 0.00 0.00 0.00 0.00 0.00 0.00 0.00 0.00 0.00 0.00 0.00 0.00 0.00 0.00 0.00 0.00 0.00 0.00 0.00 0.00 0.00 0.00 0.00 0.00 0.00 0.00 0.00 0.00 0.00 0.00 0.00 0.00 0.00
0.00 0.00 0.00 0.00 0.00 0.00 0.00 0.00 0.00 0.00 0.00 0.00 0.00 0.00 0.00 0.00 0.00 0.00 0.00 0.00 0.00 0.00 0.00 0.00 0.00 0.00 0.00 0.00 0.00 0.00 0.00 0.00 0.00 0.00 0.00 0.00 0.00 0.00 0.00 0.00 0.00 0.00 0.00 0.00 0.00 0.00 0.00
0.00 0.00 0.00 0.00 0.00 0.00 0.00 0.00 0.00 0.00 0.00 0.00 0.00 0.00 0.00 0.00 0.00 0.00 0.00 0.00 0.00 0.00 0.00 0.00 0.00 0.00 0.00 0.00 0.00 0.00 0.00 0.00 0.00 0.00 0.00 0.00 0.00 0.00 0.00 0.00 0.00 0.00 0.00 0.00 0.00 0.00 0.00
0.00 0.00 0.00 0.00 0.00 0.00 0.00 0.00 0.00 0.00 0.00 0.00 0.00 0.00 0.00 0.00 0.00 0.00 0.00 0.00 0.00 0.00 0.00 0.00 0.00 0.00 0.00 0.00 0.00 0.00 0.00 0.00 0.00 0.00 0.00 0.00 0.00 0.00 0.00 0.00 0.00 0.00 0.00 0.00 0.00 0.00 0.00
0.00 0.00 0.00 0.00 0.00 0.00 0.00 0.00 0.00 0.00 0.00 0.00 0.00 0.00 0.00 0.00 0.00 0.00 0.00 0.00 0.00 0.00 0.00 0.00 0.00 0.00 0.00 0.00 0.00 0.00 0.00 0.00 0.00 0.00 0.00 0.00 0.00 0.00 0.00 0.00 0.00 0.00 0.00 0.00 0.00 0.00 0.00
0.00 0.00 0.00 0.00 0.00 0.00 0.00 0.00 0.00 0.00 0.00 0.00 0.00 0.00 0.00 0.00 0.00 0.00 0.00 0.00 0.00 0.00 0.00 0.00 0.00 0.00 0.00 0.00 0.00 0.00 0.00 0.00 0.00 0.00 0.00 0.00 0.00 0.00 0.00 0.00 0.00 0.00 0.00 0.00 0.00 0.00 0.00
0.00 0.00 0.00 0.00 0.00 0.00 0.00 0.00 0.00 0.00 0.00 0.00 0.00 0.00 0.00 0.00 0.00 0.00 0.00 0.00 0.00 0.00 0.00 0.00 0.00 0.00 0.00 0.00 0.00 0.00 0.00 0.00 0.00 0.00 0.00 0.00 0.00 0.00 0.00 0.00 0.00 0.00 0.00 0.00 0.00 0.00 0.00
0.00 0.00 0.00 0.00 0.00 0.00 0.00 0.00 0.00 0.00 0.00 0.00 0.00 0.00 0.00 0.00 0.00 0.00 0.00 0.00 0.00 0.00 0.00 0.00 0.00 0.00 0.00 0.00 0.00 0.00 0.00 0.00 0.00 0.00 0.00 0.00 0.00 0.00 0.00 0.00 0.00 0.00 0.00 0.00 0.00 0.00 0.00
0.00 0.00 0.00 0.00 0.00 0.00 0.00 0.00 0.00 0.00 0.00 0.00 0.00 0.00 0.00 0.00 0.00 0.00 0.00 0.00 0.00 0.00 0.00 0.00 0.00 0.00 0.00 0.00 0.00 0.00 0.00 0.00 0.00 0.00 0.00 0.00 0.00 0.00 0.00 0.00 0.00 0.00 0.00 0.00 0.00 0.00 0.00
0.00 0.00 0.00 0.00 0.00 0.00 0.00 0.00 0.01 0.00 0.00 0.00 0.00 0.00 0.00 0.00 0.00 0.00 0.00 0.00 0.00 0.00 0.00 0.00 0.00 0.00 0.00 0.00 0.00 0.00 0.00 0.00 0.00 0.00 0.00 0.00 0.00 0.00 0.00 0.00 0.00 0.00 0.00 0.00 0.00 0.00 0.00
0.00 0.00 0.00 0.00 0.00 0.00 0.00 0.00 0.00 0.00 0.00 0.00 0.00 0.00 0.00 0.00 0.00 0.00 0.00 0.00 0.00 0.00 0.00 0.00 0.00 0.00 0.00 0.00 0.00 0.00 0.00 0.00 0.00 0.00 0.00 0.00 0.00 0.00 0.00 0.00 0.00 0.00 0.00 0.00 0.00 0.00 0.00
0.00 0.01 0.01 0.00 0.01 0.00 0.00 0.00 0.00 0.00 0.00 0.00 0.00 0.00 0.00 0.00 0.00 0.00 0.00 0.00 0.00 0.00 0.00 0.00 0.00 0.00 0.00 0.00 0.00 0.00 0.00 0.00 0.00 0.00 0.00 0.00 0.00 0.00 0.00 0.00 0.00 0.00 0.00 0.00 0.00 0.00 0.00
0.00 0.00 0.00 0.01 0.01 0.00 0.01 0.01 0.00 0.00 0.00 0.00 0.00 0.00 0.00 0.00 0.00 0.00 0.00 0.00 0.00 0.00 0.00 0.00 0.00 0.00 0.00 0.00 0.00 0.00 0.00 0.00 0.00 0.00 0.00 0.00 0.00 0.00 0.00 0.00 0.00 0.00 0.00 0.00 0.00 0.00 0.00
0.01 0.01 0.01 0.01 0.01 0.01 0.01 0.01 0.00 0.00 0.00 0.00 0.00 0.00 0.00 0.00 0.00 0.00 0.00 0.00 0.00 0.00 0.00 0.00 0.00 0.00 0.00 0.00 0.00 0.00 0.00 0.00 0.00 0.00 0.00 0.00 0.00 0.00 0.00 0.00 0.00 0.00 0.00 0.00 0.00 0.00 0.00
0.00 0.00 0.01 0.01 0.01 0.01 0.01 0.00 0.00 0.00 0.02 0.00 0.00 0.00 0.00 0.00 0.00 0.00 0.00 0.00 0.00 0.00 0.00 0.00 0.00 0.00 0.00 0.00 0.00 0.00 0.00 0.00 0.00 0.00 0.00 0.00 0.00 0.00 0.00 0.00 0.00 0.00 0.00 0.00 0.00 0.00 0.00
0.00 0.00 0.01 0.01 0.01 0.01 0.01 0.01 0.02 0.03 0.03 0.01 0.00 0.00 0.00 0.00 0.00 0.00 0.00 0.00 0.00 0.00 0.00 0.00 0.00 0.00 0.00 0.01 0.02 0.00 0.00 0.00 0.00 0.00 0.00 0.00 0.00 0.00 0.00 0.00 0.00 0.00 0.00 0.00 0.02 0.05 0.04
0.00 0.01 0.01 0.01 0.01 0.01 0.00 0.01 0.02 0.03 0.04 0.04 0.02 0.01 0.00 0.00 0.00 0.00 0.00 0.00 0.00 0.00 0.00 0.00 0.00 0.00 0.00 0.00 0.02 0.02 0.00 0.00 0.00 0.00 0.02 0.04 0.03 0.00 0.00 0.00 0.00 0.00 0.00 0.00 0.00 0.01 0.00
0.01 0.01 0.01 0.01 0.01 0.01 0.00 0.01 0.02 0.04 0.05 0.10 0.09 0.02 0.00 0.00 0.00 0.00 0.01 0.01 0.01 0.01 0.00 0.00 0.01 0.01 0.01 0.01 0.01 0.01 0.02 0.02 0.01 0.01 0.03 0.07 0.06 0.01 0.00 0.00 0.00 0.00 0.00 0.00 0.00 0.00 0.00
0.00 0.01 0.01 0.01 0.01 0.01 0.01 0.01 0.02 0.04 0.05 0.09 0.14 0.05 0.03 0.02 0.00 0.00 0.00 0.00 0.00 0.00 0.00 0.00 0.00 0.00 0.01 0.01 0.01 0.03 0.07 0.05 0.04 0.02 0.05 0.07 0.06 0.01 0.00 0.00 0.00 0.00 0.00 0.00 0.00 0.00 0.00
0.00 0.00 0.00 0.00 0.01 0.01 0.02 0.01 0.03 0.06 0.08 0.13 0.12 0.05 0.06 0.07 0.01 0.01 0.00 0.00 0.00 0.00 0.01 0.00 0.02 0.04 0.03 0.01 0.02 0.04 0.03 0.01 0.01 0.01 0.01 0.04 0.03 0.04 0.03 0.00 0.00 0.01 0.00 0.00 0.00 0.00 0.00
0.00 0.00 0.01 0.01 0.02 0.01 0.01 0.02 0.04 0.07 0.08 0.15 0.22 0.18 0.23 0.16 0.05 0.01 0.00 0.00 0.00 0.00 0.03 0.02 0.03 0.06 0.04 0.05 0.05 0.03 0.00 0.00 0.00 0.00 0.01 0.04 0.03 0.05 0.04 0.04 0.05 0.01 0.00 0.00 0.00 0.01 0.00
0.01 0.01 0.02 0.03 0.03 0.01 0.02 0.01 0.01 0.03 0.06 0.12 0.19 0.37 0.40 0.29 0.09 0.04 0.00 0.00 0.01 0.00 0.01 0.02 0.03 0.05 0.06 0.10 0.11 0.03 0.00 0.00 0.00 0.00 0.00 0.01 0.05 0.08 0.05 0.03 0.01 0.00 0.01 0.00 0.00 0.01 0.01
0.01 0.01 0.02 0.03 0.02 0.04 0.04 0.02 0.01 0.01 0.03 0.08 0.10 0.22 0.48 0.39 0.15 0.02 0.03 0.02 0.04 0.03 0.02 0.01 0.01 0.00 0.03 0.07 0.10 0.06 0.01 0.00 0.00 0.00 0.00 0.01 0.02 0.08 0.06 0.05 0.02 0.01 0.01 0.01 0.01 0.01 0.00
0.01 0.00 0.01 0.02 0.02 0.04 0.04 0.03 0.01 0.01 0.02 0.07 0.04 0.08 0.27 0.38 0.15 0.05 0.08 0.05 0.05 0.06 0.05 0.01 0.00 0.02 0.10 0.20 0.17 0.07 0.01 0.00 0.01 0.00 0.00 0.01 0.02 0.03 0.01 0.04 0.03 0.02 0.02 0.02 0.02 0.01 0.01
0.00 0.00 0.01 0.01 0.01 0.02 0.01 0.01 0.00 0.01 0.02 0.07 0.01 0.02 0.10 0.28 0.14 0.04 0.01 0.04 0.07 0.06 0.02 0.01 0.09 0.08 0.06 0.04 0.03 0.04 0.05 0.02 0.01 0.01 0.00 0.01 0.01 0.02 0.02 0.04 0.05 0.02 0.03 0.04 0.02 0.01 0.01
0.00 0.00 0.00 0.00 0.00 0.00 0.01 0.01 0.01 0.00 0.03 0.07 0.05 0.14 0.26 0.36 0.10 0.02 0.05 0.09 0.05 0.03 0.05 0.12 0.12 0.05 0.08 0.14 0.11 0.06 0.01 0.01 0.00 0.02 0.02 0.06 0.06 0.06 0.06 0.07 0.06 0.04 0.04 0.04 0.03 0.02 0.02
MSLP
1023.54 1023.39 1023.22 1023.01 1022.83 1022.58 1022.27 1021.93 1021.58 1021.21 1020.81 1020.37 1019.89 1019.39 1018.86 1018.24 1017.53 1016.86 1016.23 1015.56 1014.92 1014.34 1013.86 1013.40 1013.07 1013.17 1013.16 1012.85 1010.77 1009.54 1009.76 1010.13 1010.46 1010.79 1011.17 1011.64 1011.98 1012.27 1012.46 1012.59 1012.71 1012.75 1012.27 1012.05 1011.78 1011.87 1011.95
1023.93 1023.75 1023.57 1023.31 1023.07 1022.78 1022.43 1022.05 1021.67 1021.26 1020.79 1020.29 1019.80 1019.23 1018.62 1017.98 1017.31 1016.57 1015.84 1015.09 1014.38 1013.76 1013.40 1013.13 1012.81 1013.06 1013.19 1012.13 1009.62 1009.66 1009.97 1010.43 1010.56 1010.75 1011.15 1011.35 1011.43 1011.59 1012.03 1012.25 1012.42 1012.10 1012.05 1011.95 1011.73 1011.72 1011.80
1024.37 1024.12 1023.80 1023.44 1023.17 1022.86 1022.46 1022.07 1021.69 1021.26 1020.80 1020.30 1019.76 1019.22 1018.66 1018.04 1017.33 1016.52 1015.69 1014.80 1014.02 1013.46 1012.80 1012.55 1012.67 1012.91 1012.75 1010.29 1009.56 1009.73 1010.00 1010.12 1010.27 1010.56 1010.93 1011.00 1011.15 1011.47 1011.86 1012.11 1012.06 1012.10 1012.32 1011.99 1011.57 1011.33 1011.64
1024.54 1024.28 1024.02 1023.74 1023.34 1022.95 1022.57 1022.17 1021.75 1021.31 1020.86 1020.32 1019.77 1019.21 1018.60 1017.93 1017.14 1016.30 1015.28 1014.19 1013.36 1012.85 1012.37 1012.29 1012.36 1012.81 1011.75 1009.59 1009.67 1009.90 1010.05 1010.20 1010.31 1010.37 1010.56 1010.71 1010.99 1011.54 1011.86 1012.06 1012.16 1012.55 1012.77 1012.58 1011.55 1011.55 1011.47
1024.55 1024.39 1024.13 1023.85 1023.49 1023.12 1022.74 1022.32 1021.84 1021.38 1020.90 1020.41 1019.90 1019.29 1018.63 1017.85 1016.92 1015.97 1014.72 1013.56 1012.76 1012.30 1012.23 1012.40 1012.83 1012.66 1011.04 1009.65 1009.75 1009.49 1009.63 1009.91 1010.22 1010.35 1010.54 1010.74 1011.08 1011.88 1012.20 1012.54 1013.05 1012.99 1012.85 1012.63 1011.99 1011.42 1011.52
1024.75 1024.47 1024.23 1023.89 1023.53 1023.15 1022.74 1022.37 1021.99 1021.49 1020.98 1020.50 1019.99 1019.45 1018.77 1017.99 1017.01 1015.81 1014.32 1012.68 1012.30 1012.42 1012.57 1012.71 1012.65 1012.97 1010.65 1009.76 1009.49 1009.62 1009.87 1009.97 1010.25 1010.74 1011.13 1011.37 1012.08 1012.51 1012.82 1012.95 1012.76 1012.59 1012.81 1012.56 1012.22 1011.50 1011.60
1024.82 1024.64 1024.36 1023.98 1023.56 1023.11 1022.69 1022.25 1021.84 1021.44 1020.93 1020.38 1019.83 1019.28 1018.48 1017.58 1016.67 1015.45 1014.09 1013.09 1013.42 1013.21 1013.03 1012.40 1012.04 1011.38 1010.46 1009.97 1009.67 1009.82 1009.86 1010.16 1010.51 1011.05 1011.56 1011.85 1012.37 1012.21 1011.41 1011.27 1011.52 1011.69 1012.04 1011.89 1011.42 1011.19 1011.38
1024.93 1024.61 1024.33 1024.05 1023.71 1023.23 1022.79 1022.28 1021.78 1021.26 1020.82 1020.33 1019.75 1019.20 1018.44 1017.54 1016.62 1015.73 1014.91 1015.86 1016.82 1017.01 1014.76 1012.15 1011.42 1011.32 1010.66 1010.35 1010.28 1009.84 1009.84 1010.56 1010.90 1011.29 1011.75 1012.34 1011.37 1010.66 1010.86 1011.33 1011.63 1011.80 1011.94 1011.66 1011.17 1010.75 1011.29
1025.10 1024.73 1024.45 1024.13 1023.68 1023.24 1022.79 1022.28 1021.81 1021.33 1020.82 1020.43 1019.82 1019.25 1018.55 1017.77 1016.76 1016.47 1016.86 1017.12 1016.89 1016.84 1016.13 1012.04 1010.99 1010.50 1010.00 1010.36 1010.24 1009.88 1010.00 1010.23 1010.71 1011.53 1011.66 1011.53 1010.70 1010.34 1011.03 1011.31 1011.60 1011.41 1011.64 1011.51 1011.32 1011.15 1010.92
1025.14 1024.77 1024.41 1024.13 1023.77 1023.34 1022.84 1022.29 1021.72 1021.35 1020.95 1020.45 1019.94 1019.34 1018.69 1018.03 1017.15 1017.51 1017.14 1017.09 1016.77 1016.87 1015.76 1011.94 1010.57 1009.80 1009.74 1009.82 1009.98 1009.76 1010.00 1010.36 1010.75 1011.11 1011.70 1011.53 1010.50 1010.59 1010.97 1011.05 1011.14 1011.22 1010.64 1010.86 1011.27 1011.80 1011.42
1025.21 1024.90 1024.55 1024.20 1023.78 1023.27 1022.74 1022.24 1021.69 1021.24 1020.89 1020.45 1019.90 1019.36 1018.77 1018.36 1018.49 1018.00 1017.38 1016.94 1016.67 1016.88 1015.10 1010.99 1009.92 1009.22 1009.39 1009.85 1009.91 1009.88 1009.93 1010.15 1010.70 1011.11 1011.71 1010.76 1010.52 1010.64 1010.67 1010.27 1010.35 1010.29 1010.34 1010.94 1011.37 1011.69 1011.63
1025.01 1024.78 1024.45 1024.18 1023.82 1023.29 1022.75 1022.22 1021.75 1021.27 1020.80 1020.37 1019.84 1019.23 1018.69 1018.48 1018.59 1017.68 1017.18 1016.87 1016.82 1016.67 1013.29 1010.76 1009.96 1009.70 1009.81 1009.83 1009.91 1010.03 1010.08 1010.19 1010.61 1010.94 1011.17 1010.75 1010.41 1010.25 1009.67 1009.55 1009.82 1009.92 1010.51 1011.34 1011.99 1012.32 1011.97
1024.92 1024.52 1024.24 1023.96 1023.66 1023.21 1022.70 1022.27 1021.75 1021.25 1020.81 1020.35 1019.72 1018.97 1018.56 1018.50 1018.17 1017.48 1017.30 1017.20 1017.04 1015.51 1011.77 1011.40 1010.84 1010.56 1010.62 1010.22 1010.12 1010.14 1010.38 1010.67 1010.93 1011.25 1011.24 1010.82 1010.10 1009.36 1009.05 1009.39 1009.62 1009.84 1010.57 1011.55 1012.12 1012.44 1011.20
1024.75 1024.29 1024.05 1023.70 1023.32 1022.94 1022.52 1022.06 1021.63 1021.19 1020.67 1020.12 1019.45 1018.57 1018.25 1018.10 1017.65 1017.52 1017.44 1017.59 1017.03 1013.45 1012.44 1012.08 1011.71 1011.40 1011.19 1010.56 1010.45 1010.53 1010.54 1010.61 1010.65 1011.04 1011.29 1010.93 1009.96 1009.28 1008.86 1008.69 1008.90 1009.57 1010.02 1010.40 1010.55 1010.85 1011.06
1024.43 1024.06 1023.68 1023.39 1023.04 1022.69 1022.25 1021.94 1021.42 1021.05 1020.63 1020.00 1019.18 1018.79 1018.40 1017.64 1017.45 1017.46 1017.63 1017.47 1015.13 1013.91 1013.25 1012.79 1012.17 1012.01 1011.63 1011.28 1011.42 1011.16 1011.04 1010.74 1010.34 1010.51 1010.98 1010.80 1010.14 1009.02 1008.68 1008.57 1008.73 1009.48 1009.80 1009.49 1010.17 1010.86 1011.33
1024.03 1023.72 1023.36 1022.99 1022.55 1022.20 1021.91 1021.55 1021.13 1020.78 1020.46 1019.97 1019.83 1019.46 1018.62 1017.91 1017.63 1017.81 1017.89 1016.57 1015.01 1014.06 1013.62 1013.35 1013.21 1012.67 1012.47 1011.99 1011.91 1011.62 1011.08 1010.62 1010.57 1010.49 1010.54 1010.56 1010.44 1009.44 1008.93 1008.79 1008.70 1008.71 1009.13 1009.77 1010.38 1010.87 1011.30
1023.79 1023.40 1022.96 1022.69 1022.33 1021.81 1021.48 1021.23 1020.83 1020.42 1020.12 1019.95 1020.13 1019.84 1018.30 1017.88 1017.73 1018.13 1017.81 1016.75 1015.45 1014.52 1014.30 1014.09 1013.65 1013.47 1013.05 1012.92 1012.58 1012.45 1011.47 1010.84 1010.62 1010.74 1010.91 1011.09 1011.41 1010.74 1010.14 1009.77 1009.53 1009.66 1009.54 1009.96 1010.35 1010.78 1011.27
1023.42 1023.05 1022.70 1022.14 1021.79 1021.51 1021.07 1020.78 1020.40 1019.97 1019.92 1019.99 1020.56 1019.92 1017.96 1017.59 1018.21 1017.94 1017.59 1016.82 1016.15 1015.05 1014.43 1014.17 1013.72 1013.60 1013.63 1013.47 1013.11 1012.80 1012.02 1011.22 1010.80 1010.81 1011.08 1011.16 1011.66 1011.73 1011.38 1010.58 1010.48 1010.37 1010.49 1010.73 1011.21 1011.71 1012.32
1023.21 1022.80 1022.50 1022.08 1021.56 1021.11 1020.76 1020.45 1020.09 1019.79 1019.63 1020.04 1020.24 1019.54 1018.31 1018.13 1018.52 1018.16 1017.64 1017.26 1016.69 1015.94 1015.37 1014.72 1014.48 1013.93 1013.78 1013.93 1014.06 1012.95 1012.32 1011.79 1011.47 1011.37 1011.26 1011.50 1011.78 1012.04 1011.69 1011.63 1011.11 1011.15 1011.39 1011.78 1012.39 1012.84 1013.21
1022.84 1022.56 1022.14 1021.74 1021.30 1020.90 1020.53 1020.14 1019.79 1019.52 1019.28 1019.70 1020.01 1019.59 1018.90 1018.59 1018.13 1018.17 1017.83 1016.99 1016.30 1015.48 1015.26 1014.82 1014.27 1014.11 1014.00 1013.83 1013.87 1013.32 1012.88 1012.20 1011.84 1011.68 1011.69 1011.85 1011.69 1011.79 1011.84 1011.80 1011.99 1012.23 1012.27 1012.67 1013.25 1013.85 1014.15
1022.36 1021.90 1021.54 1021.24 1020.80 1020.48 1020.16 1019.80 1019.45 1019.09 1018.83 1019.25 1019.08 1018.79 1018.21 1018.35 1017.86 1017.60 1017.52 1017.00 1016.57 1016.05 1015.47 1015.13 1014.50 1014.29 1014.33 1014.06 1013.87 1013.75 1013.15 1012.97 1012.38 1012.25 1012.01 1012.06 1011.53 1011.90 1011.82 1012.11 1012.67 1012.83 1012.92 1013.56 1014.16 1014.37 1015.28
1021.95 1021.40 1021.00 1020.68 1020.27 1019.75 1019.49 1019.23 1019.00 1018.67 1018.52 1018.70 1018.59 1018.43 1018.35 1018.12 1017.58 1017.47 1017.29 1016.81 1016.34 1015.59 1015.64 1015.06 1014.91 1014.24 1014.28 1014.02 1014.03 1013.68 1013.48 1013.43 1013.16 1012.60 1012.61 1012.18 1012.06 1012.33 1012.65 1012.62 1012.88 1013.36 1013.62 1014.19 1014.74 1015.42 1016.19
1021.28 1020.86 1020.49 1020.11 1019.78 1019.42 1019.07 1018.86 1018.58 1018.30 1018.22 1018.02 1017.79 1017.92 1017.91 1017.23 1017.35 1016.96 1016.38 1016.00 1015.50 1015.19 1014.87 1014.39 1014.30 1014.22 1013.88 1013.55 1013.33 1013.28 1013.29 1013.34 1013.37 1013.23 1012.78 1012.58 1012.43 1012.69 1012.54 1013.03 1013.82 1014.81 1014.92 1015.40 1016.51 1017.81 1018.64
1020.48 1020.02 1019.73 1019.46 1019.12 1018.78 1018.38 1018.26 1018.06 1017.85 1017.89 1018.00 1017.71 1017.65 1016.97 1015.80 1016.35 1015.99 1015.58 1015.46 1015.14 1014.74 1014.73 1014.27 1014.38 1014.22 1013.54 1013.54 1013.18 1013.20 1013.27 1013.24 1013.29 1012.73 1012.61 1012.45 1012.48 1012.72 1012.99 1014.28 1015.28 1015.96 1016.68 1017.12 1018.52 1020.40 1021.16
1019.94 1019.43 1019.16 1018.82 1018.45 1018.08 1017.86 1017.59 1017.29 1017.12 1017.00 1017.20 1017.03 1017.23 1016.75 1015.29 1015.14 1015.20 1015.31 1014.92 1014.67 1014.65 1014.54 1014.08 1013.52 1013.69 1013.51 1013.69 1013.24 1013.18 1013.63 1013.80 1013.04 1012.68 1012.57 1012.58 1012.66 1012.95 1013.47 1015.02 1016.37 1017.51 1018.65 1019.57 1019.70 1022.46 1023.06
1019.62 1019.23 1018.93 1018.51 1018.10 1017.70 1017.39 1017.12 1016.87 1016.71 1016.55 1016.49 1016.29 1016.58 1016.66 1016.18 1014.83 1014.71 1014.65 1014.76 1014.70 1014.43 1014.18 1013.66 1013.48 1013.40 1013.52 1013.01 1012.82 1012.94 1013.71 1013.71 1013.85 1013.83 1013.40 1013.39 1013.28 1013.81 1014.45 1015.85 1017.70 1019.53 1020.47 1021.15 1021.33 1023.46 1024.27
1019.54 1019.08 1018.63 1018.21 1017.81 1017.40 1017.11 1016.75 1016.53 1016.19 1015.94 1016.00 1015.74 1015.79 1015.83 1015.46 1014.83 1014.81 1014.67 1014.62 1014.52 1014.31 1014.11 1013.85 1013.58 1013.32 1013.14 1012.40 1012.06 1012.26 1013.36 1013.88 1014.62 1014.88 1014.77 1015.01 1015.00 1015.16 1016.07 1017.45 1019.97 1021.81 1022.38 1022.29 1023.67 1025.79 1025.23
1019.41 1019.03 1018.65 1018.22 1017.73 1017.36 1016.99 1016.65 1016.24 1015.97 1015.46 1015.47 1015.24 1014.97 1015.19 1014.65 1014.59 1014.48 1014.52 1014.72 1014.76 1014.54 1014.45 1014.06 1013.83 1012.86 1012.71 1012.69 1012.59 1012.86 1013.61 1014.34 1015.19 1016.06 1016.68 1017.33 1018.02 1018.11 1018.40 1020.12 1022.84 1023.70 1023.61 1024.61 1026.44 1026.14 1026.14
1019.54 1019.12 1018.67 1018.24 1017.73 1017.36 1016.79 1016.31 1015.73 1015.49 1015.08 1014.90 1015.01 1014.67 1014.61 1014.89 1014.94 1014.86 1015.47 1015.72 1015.79 1015.65 1015.07 1014.05 1013.42 1013.07 1012.70 1012.66 1012.99 1013.41 1014.44 1015.60 1016.59 1018.42 1019.66 1021.14 1022.30 1022.17 1023.23 1024.45 1025.91 1026.39 1026.70 1027.40 1027.39 1027.24 1027.01
Thickness
5635 5634 5634 5635 5635 5635 5636 5637 5639 5640 5641 5642 5645 5647 5650 5653 5657 5661 5664 5668 5671 5673 5675 5677 5679 5676 5675 5675 5683 5700 5696 5690 5687 5682 5675 5669 5664 5657 5654 5650 5650 5648 5653 5655 5656 5654 5651
5632 5633 5632 5632 5632 5633 5634 5635 5636 5638 5639 5641 5643 5646 5649 5652 5655 5659 5663 5667 5670 5673 5674 5674 5674 5671 5670 5666 5694 5691 5688 5683 5680 5676 5669 5664 5662 5659 5654 5651 5645 5650 5651 5649 5652 5649 5645
5629 5629 5629 5630 5631 5631 5632 5633 5634 5635 5637 5639 5641 5643 5645 5648 5651 5655 5659 5662 5666 5669 5671 5672 5669 5666 5665 5676 5687 5683 5679 5676 5674 5669 5662 5662 5659 5655 5649 5646 5644 5643 5639 5640 5645 5646 5640
5627 5627 5627 5628 5628 5629 5630 5630 5631 5632 5633 5635 5638 5639 5642 5644 5647 5651 5656 5661 5665 5667 5668 5666 5663 5659 5662 5683 5679 5675 5671 5667 5666 5663 5660 5657 5652 5645 5643 5641 5633 5630 5625 5626 5641 5633 5636
5623 5623 5623 5623 5624 5625 5625 5625 5626 5627 5628 5629 5630 5632 5635 5638 5643 5648 5654 5660 5663 5665 5663 5659 5654 5652 5657 5674 5669 5670 5666 5660 5656 5655 5652 5649 5643 5632 5632 5621 5613 5611 5611 5609 5623 5630 5627
5618 5618 5618 5619 5619 5619 5620 5620 5620 5621 5622 5623 5624 5624 5626 5629 5635 5642 5650 5660 5660 5657 5653 5649 5648 5644 5659 5663 5664 5661 5656 5652 5647 5641 5636 5633 5617 5612 5608 5612 5608 5611 5602 5603 5614 5630 5618
5614 5613 5612 5613 5614 5614 5614 5615 5615 5615 5616 5617 5618 5619 5621 5625 5630 5637 5646 5649 5641 5646 5641 5649 5648 5648 5653 5652 5653 5649 5646 5640 5635 5629 5620 5617 5605 5611 5623 5619 5617 5616 5604 5606 5616 5619 5611
5607 5607 5607 5606 5606 5606 5607 5608 5608 5608 5609 5609 5610 5610 5613 5615 5620 5624 5628 5617 5606 5602 5619 5632 5634 5631 5636 5640 5635 5638 5637 5625 5620 5614 5607 5602 5602 5623 5615 5607 5604 5602 5598 5600 5605 5610 5600
5601 5600 5600 5599 5598 5598 5599 5600 5600 5599 5599 5599 5601 5602 5603 5605 5609 5609 5602 5598 5596 5593 5591 5629 5635 5635 5636 5628 5622 5624 5624 5619 5614 5599 5595 5596 5611 5609 5601 5593 5592 5586 5591 5590 5597 5595 5594
5595 5594 5593 5592 5592 5591 5591 5592 5592 5591 5590 5589 5589 5591 5593 5595 5599 5591 5592 5589 5588 5584 5580 5620 5632 5632 5630 5626 5620 5619 5613 5609 5604 5596 5586 5583 5598 5596 5588 5588 5585 5579 5590 5589 5585 5578 5582
5589 5587 5585 5584 5583 5583 5584 5584 5583 5582 5582 5581 5580 5581 5582 5581 5579 5577 5581 5580 5579 5572 5582 5625 5622 5623 5618 5614 5610 5608 5604 5600 5592 5587 5579 5589 5584 5577 5574 5582 5578 5581 5578 5572 5570 5562 5562
5584 5581 5579 5576 5574 5575 5575 5575 5575 5574 5574 5573 5572 5574 5575 5572 5568 5573 5572 5571 5568 5569 5567 5615 5610 5606 5604 5600 5597 5592 5590 5588 5581 5577 5570 5566 5571 5573 5576 5576 5569 5571 5566 5546 5530 5536 5538
5578 5575 5572 5569 5567 5566 5566 5566 5565 5564 5563 5563 5562 5565 5565 5562 5560 5563 5562 5558 5551 5553 5602 5597 5589 5585 5579 5585 5584 5577 5572 5565 5559 5553 5548 5560 5559 5568 5570 5566 5560 5559 5547 5542 5540 5520 5553
5571 5569 5565 5562 5560 5558 5557 5555 5554 5554 5554 5556 5556 5558 5558 5555 5554 5550 5545 5541 5544 5583 5574 5565 5566 5560 5564 5571 5567 5563 5554 5548 5542 5544 5529 5534 5550 5551 5557 5556 5550 5532 5536 5534 5540 5530 5542
5565 5561 5558 5555 5553 5551 5549 5546 5544 5543 5544 5545 5548 5547 5544 5546 5542 5536 5536 5516 5544 5549 5549 5540 5544 5542 5544 5548 5538 5536 5529 5528 5532 5524 5531 5509 5523 5541 5543 5541 5541 5527 5520 5533 5525 5508 5499
5558 5553 5550 5547 5545 5542 5540 5538 5536 5534 5533 5532 5530 5527 5527 5527 5522 5515 5517 5518 5524 5525 5526 5523 5519 5522 5516 5518 5518 5515 5512 5518 5521 5512 5511 5511 5504 5521 5525 5524 5524 5522 5518 5506 5495 5499 5495
5548 5544 5542 5538 5534 5533 5531 5529 5526 5523 5519 5517 5509 5504 5513 5510 5505 5499 5492 5488 5498 5502 5499 5494 5490 5486 5487 5492 5491 5487 5497 5501 5501 5496 5491 5489 5481 5495 5497 5500 5498 5494 5492 5490 5488 5484 5488
5538 5535 5533 5532 5528 5525 5522 5518 5514 5512 5505 5500 5487 5488 5496 5491 5482 5466 5464 5473 5474 5476 5478 5472 5471 5465 5464 5465 5460 5462 5467 5484 5478 5477 5474 5466 5449 5459 5463 5471 5468 5470 5471 5468 5465 5462 5449
5527 5524 5523 5521 5520 5517 5512 5508 5502 5497 5489 5481 5469 5469 5475 5468 5442 5436 5445 5442 5444 5445 5446 5444 5441 5444 5444 5442 5431 5441 5453 5459 5457 5456 5450 5447 5435 5431 5447 5444 5447 5446 5439 5432 5424 5420 5424
5518 5516 5513 5511 5507 5503 5498 5493 5486 5479 5471 5461 5451 5447 5441 5441 5430 5425 5422 5424 5421 5427 5418 5418 5420 5423 5424 5414 5415 5419 5427 5429 5435 5434 5435 5423 5416 5423 5423 5433 5425 5420 5422 5416 5411 5396 5402
5513 5511 5506 5500 5495 5489 5482 5476 5469 5460 5451 5437 5428 5427 5424 5402 5403 5397 5394 5389 5393 5394 5397 5396 5398 5405 5395 5396 5394 5392 5400 5398 5408 5408 5408 5405 5410 5401 5407 5406 5400 5402 5407 5397 5393 5396 5385
5501 5498 5494 5488 5482 5477 5469 5458 5448 5439 5426 5412 5402 5394 5385 5380 5380 5371 5366 5355 5371 5380 5368 5377 5368 5379 5371 5371 5367 5364 5374 5373 5376 5385 5387 5385 5388 5380 5376 5385 5386 5389 5392 5383 5389 5387 5382
5492 5487 5481 5475 5467 5459 5450 5439 5427 5413 5397 5384 5371 5363 5352 5365 5347 5350 5356 5353 5357 5351 5356 5356 5356 5354 5355 5359 5366 5365 5362 5362 5365 5364 5367 5373 5375 5373 5377 5366 5361 5358 5355 5367 5340 5308 5313
5483 5477 5468 5459 5450 5440 5430 5417 5402 5389 5371 5355 5346 5335 5333 5343 5335 5341 5346 5344 5342 5347 5336 5345 5341 5338 5345 5343 5348 5345 5343 5347 5353 5360 5363 5364 5359 5365 5366 5345 5354 5321 5315 5311 5299 5281 5281
5469 5463 5453 5442 5432 5420 5407 5394 5379 5363 5350 5336 5330 5322 5321 5336 5336 5333 5329 5336 5338 5331 5329 5331 5342 5335 5332 5333 5342 5343 5318 5323 5329 5344 5348 5352 5354 5354 5352 5341 5319 5314 5295 5292 5292 5266 5254
5453 5444 5432 5421 5409 5396 5381 5366 5353 5339 5328 5321 5319 5312 5309 5315 5329 5330 5328 5325 5325 5325 5324 5328 5324 5322 5323 5334 5341 5345 5343 5329 5325 5318 5333 5331 5339 5343 5344 5347 5341 5266 5271 5266 5268 5268 5248
5434 5423 5412 5400 5387 5374 5361 5349 5334 5325 5318 5313 5312 5307 5307 5309 5320 5321 5323 5314 5321 5322 5324 5306 5314 5322 5323 5339 5349 5350 5335 5322 5324 5309 5324 5325 5330 5337 5338 5344 5265 5240 5244 5257 5288 5248 5233
5414 5402 5390 5377 5367 5355 5343 5334 5327 5320 5316 5313 5311 5311 5309 5315 5318 5317 5318 5317 5315 5317 5315 5310 5319 5325 5325 5328 5332 5321 5328 5319 5310 5297 5296 5309 5301 5304 5313 5331 5307 5221 5242 5257 5215 5217 5218
5394 5382 5370 5361 5354 5346 5339 5335 5331 5326 5322 5318 5315 5314 5312 5308 5311 5309 5301 5297 5295 5296 5304 5314 5316 5317 5321 5325 5319 5318 5323 5298 5298 5318 5245 5273 5224 5244 5220 5217 5201 5201 5202 5198 5199 5202 5202